Weather History for KEWR - January, 2014

Change the Weather History Date:

Monday, January 6, 2014

  Actual Average Record
Temperature  
Mean Temperature 37 °F 32 °F  
Max Temperature 58 °F 39 °F 72 °F (2007)
Min Temperature 16 °F 25 °F 6 °F (1996)
Degree Days  
Heating Degree Days 28 33  
Month to date heating degree days 241 197  
Since 1 July heating degree days 1973 1947  
Cooling Degree Days 0 0  
Month to date cooling degree days 0 0  
Year to date cooling degree days 0 0  
Moisture  
Dew Point 39 °F    
Average Humidity 73    
Maximum Humidity 100    
Minimum Humidity 45    
Precipitation  
Precipitation 0.37 in 0.12 in 1.56 in (1962)
Month to date precipitation 1.04 0.71  
Year to date precipitation 1.04 0.71  
Snow  
Snow 0.00 in 0.20 in 4.10 in (1989)
Month to date snowfall 8.8 1.4  
Since 1 July snowfall 18.2 7.2  
Snow Depth 1.00 in    
Sea Level Pressure  
Sea Level Pressure 29.55 in    
Wind  
Wind Speed 16 mph (SW)    
Max Wind Speed 38 mph    
Max Gust Speed 51 mph    
Visibility 7 miles    
Events Fog , Rain    
T = Trace of Precipitation, MM = Missing Value Source: NWS Daily Summary

Daily Weather History Graph

Daily Weather History Graph

Search for Another Location

Airport or City:

Trip Planner

Search our weather history database for the weather conditions in past years. The results will help you decide how hot, cold, wet, or windy it might be!

Date:

Astronomy

Jan. 06, 2014 Rise Set
Actual Time 7:20 AM EST 4:44 PM EST
Civil Twilight 6:50 AM EST 5:15 PM EST
Nautical Twilight 6:15 AM EST 5:49 PM EST
Astronomical Twilight 5:42 AM EST 6:22 PM EST
Moon 10:32 AM EST (1/6) 11:17 PM EST (1/6)
Length of Visible Light 10h 25m
Length of Day
9h 23m
Waxing Crescent, 34% of the Moon is Illuminated
Jan 6
Waxing Crescent
Jan 7
First Quarter
Jan 15
Full
Jan 24
Last Quarter
Jan 30
New

Hourly Weather History & Observations

Time (EST) Temp. Windchill Dew Point Humidity Pressure Visibility Wind Dir Wind Speed Gust Speed Precip Events Conditions
12:30 AM 48.2 °F - 48.2 °F 100% 29.72 in 0.5 mi SSE 9.2 mph - 0.01 in Fog , Rain Light Rain
12:51 AM 48.9 °F - 48.9 °F 100% 29.70 in 1.0 mi SSE 9.2 mph - 0.07 in Rain Light Rain
1:24 AM 50.0 °F - 50.0 °F 100% 29.67 in 1.0 mi SSE 6.9 mph - 0.01 in   Overcast
1:51 AM 52.0 °F - 51.1 °F 97% 29.67 in 1.0 mi South 10.4 mph - 0.02 in   Overcast
2:46 AM 53.6 °F - 53.6 °F 100% 29.64 in 4.0 mi South 8.1 mph - N/A   Overcast
2:51 AM 53.1 °F - 53.1 °F 100% 29.63 in 4.0 mi South 8.1 mph - N/A   Overcast
3:45 AM 55.4 °F - 53.6 °F 94% 29.58 in 8.0 mi South 11.5 mph - 0.01 in   Overcast
3:51 AM 55.0 °F - 54.0 °F 96% 29.57 in 8.0 mi South 10.4 mph - 0.01 in   Overcast
4:51 AM 55.0 °F - 54.0 °F 96% 29.53 in 6.0 mi South 8.1 mph - 0.01 in   Overcast
5:51 AM 57.0 °F - 55.9 °F 96% 29.50 in 7.0 mi South 12.7 mph - N/A   Overcast
6:51 AM 57.0 °F - 55.9 °F 96% 29.45 in 9.0 mi South 10.4 mph - N/A   Overcast
7:41 AM 57.2 °F - 55.4 °F 94% 29.43 in 8.0 mi South 16.1 mph 24.2 mph 0.01 in Rain Light Rain
7:51 AM 57.9 °F - 55.9 °F 93% 29.43 in 7.0 mi South 18.4 mph 28.8 mph 0.03 in Rain Light Rain
7:58 AM 57.2 °F - 55.4 °F 94% 29.42 in 5.0 mi South 15.0 mph 28.8 mph 0.01 in Rain Rain
8:40 AM 57.2 °F - 55.4 °F 94% 29.46 in 1.2 mi West 36.8 mph 50.6 mph 0.04 in Rain Heavy Rain
8:44 AM 50.0 °F - 48.2 °F 94% 29.47 in 1.2 mi West 31.1 mph 50.6 mph 0.04 in Rain Heavy Rain
8:47 AM 48.2 °F - 46.4 °F 93% 29.46 in 6.0 mi West 26.5 mph 50.6 mph 0.07 in Rain Light Rain
8:51 AM 48.9 °F - 46.0 °F 90% 29.46 in 7.0 mi West 21.9 mph 42.6 mph 0.11 in Rain Light Rain
8:56 AM 48.2 °F - 46.4 °F 93% 29.45 in 6.0 mi West 19.6 mph 28.8 mph 0.01 in Rain Rain
9:51 AM 46.9 °F - 43.0 °F 86% 29.51 in 4.0 mi WSW 11.5 mph - 0.07 in Rain Heavy Rain
10:51 AM 46.9 °F - 42.1 °F 83% 29.48 in 10.0 mi WSW 11.5 mph - 0.04 in   Overcast
11:31 AM 46.4 °F 39.8 °F 41.0 °F 81% 29.47 in 10.0 mi WSW 16.1 mph 21.9 mph 0.00 in Rain Light Rain
11:51 AM 46.0 °F 39.6 °F 39.9 °F 79% 29.47 in 10.0 mi WSW 15.0 mph - 0.00 in Rain Light Rain
12:06 PM 44.6 °F 37.8 °F 39.2 °F 81% 29.48 in 10.0 mi WSW 15.0 mph - 0.00 in Rain Light Rain
12:51 PM 39.9 °F 30.8 °F 35.1 °F 83% 29.49 in 8.0 mi West 18.4 mph 31.1 mph 0.00 in Rain Light Rain
1:51 PM 39.9 °F 31.8 °F 30.0 °F 68% 29.49 in 10.0 mi WSW 15.0 mph 23.0 mph 0.01 in   Mostly Cloudy
2:51 PM 41.0 °F 33.1 °F 28.9 °F 62% 29.50 in 10.0 mi West 15.0 mph 23.0 mph N/A   Mostly Cloudy
3:51 PM 39.9 °F 30.2 °F 27.0 °F 60% 29.51 in 10.0 mi West 20.7 mph 26.5 mph N/A   Mostly Cloudy
4:51 PM 39.0 °F 29.9 °F 23.0 °F 53% 29.54 in 10.0 mi West 17.3 mph 23.0 mph N/A   Mostly Cloudy
5:51 PM 37.0 °F 27.4 °F 21.0 °F 52% 29.57 in 10.0 mi NW 17.3 mph 21.9 mph N/A   Mostly Cloudy
6:51 PM 35.1 °F 24.1 °F 19.0 °F 52% 29.61 in 10.0 mi WSW 19.6 mph 25.3 mph N/A   Mostly Cloudy
7:51 PM 33.1 °F 21.5 °F 15.1 °F 48% 29.64 in 10.0 mi WSW 19.6 mph 27.6 mph N/A   Mostly Cloudy
8:51 PM 30.0 °F 17.9 °F 12.0 °F 47% 29.67 in 10.0 mi West 18.4 mph 26.5 mph N/A   Scattered Clouds
9:51 PM 27.0 °F 11.3 °F 14.0 °F 58% 29.69 in 10.0 mi WSW 27.6 mph 43.7 mph N/A   Partly Cloudy
10:51 PM 23.0 °F 6.0 °F 5.0 °F 46% 29.72 in 10.0 mi West 27.6 mph 36.8 mph N/A   Partly Cloudy
11:51 PM 17.1 °F -2.0 °F -6.0 °F 36% 29.77 in 10.0 mi West 27.6 mph 42.6 mph N/A   Partly Cloudy